This is the latest recevied weather packets stored in our database for station/object N4CRH-13. If no packets are shown the sender has not sent any weather packets the latest 10 day(s).
| Time | Temp. | Humidity | Pressure | Rain* | Wind** | Luminosity | Snow |
|---|---|---|---|---|---|---|---|
| 1777836043 | 18.89° C | 20% | 1293.9 hPa | 0 mm | - | 597 W/m² | - |
| 1777835133 | 18.33° C | 18% | 1294.3 hPa | 0 mm | - | 668 W/m² | - |
| 1777834831 | 17.78° C | 21% | 1294.6 hPa | 0 mm | - | 747 W/m² | - |
| 1777834226 | 17.78° C | 24% | 1294.6 hPa | 0 mm | - | 523 W/m² | - |
| 1777833013 | 17.22° C | 20% | 1295.2 hPa | 0 mm | - | 261 W/m² | - |
| 1777832712 | 18.33° C | 21% | 1295.1 hPa | 0 mm | - | 321 W/m² | - |
| 1777829680 | 16.11° C | 24% | 1296.2 hPa | 0 mm | - | 392 W/m² | - |
| 1777827861 | 15.56° C | 25% | 1296.9 hPa | 0 mm | - | 372 W/m² | - |
| 1777825740 | 14.44° C | 25% | 1297.1 hPa | 0 mm | - | 236 W/m² | - |
| 1777825438 | 14.44° C | 27% | 1297 hPa | 0 mm | - | 219 W/m² | - |
| 1777825134 | 14.44° C | 27% | 1297.1 hPa | 0 mm | - | 211 W/m² | - |
| 1777824528 | 14.44° C | 29% | 1297.1 hPa | 0 mm | - | 214 W/m² | - |
| 1777823919 | 13.89° C | 27% | 1297.1 hPa | 0 mm | - | 225 W/m² | - |
| 1777822407 | 13.89° C | 27% | 1297.1 hPa | 0 mm | - | 189 W/m² | - |
| 1777821499 | 13.89° C | 28% | 1297.1 hPa | 0 mm | - | 195 W/m² | - |
| 1777820893 | 13.89° C | 28% | 1297 hPa | 0 mm | - | 193 W/m² | - |
| 1777820286 | 13.33° C | 28% | 1297.4 hPa | 0 mm | - | 170 W/m² | - |
| 1777818166 | 12.22° C | 38% | 1297.4 hPa | 0 mm | - | 138 W/m² | - |
| 1777817560 | 11.67° C | 36% | 1297.5 hPa | 0 mm | - | 124 W/m² | - |
| 1777817256 | 11.67° C | 36% | 1297.6 hPa | 0 mm | - | 117 W/m² | - |
| 1777816650 | 11.11° C | 38% | 1297.5 hPa | 0 mm | - | 103 W/m² | - |
| 1777815440 | 9.44° C | 47% | 1297.3 hPa | 0 mm | - | 78 W/m² | - |
| 1777814227 | 8.89° C | 51% | 1297.5 hPa | 0 mm | - | 59 W/m² | - |
| 1777813318 | 8.33° C | 46% | 1297.1 hPa | 0 mm | - | 46 W/m² | - |
| 1777813015 | 8.89° C | 43% | 1297 hPa | 0 mm | - | 42 W/m² | - |
* Rain latest hour (hover to see other rain measurements)
** Current wind speed in m/s (hover to see current wind gust speed)